Location: Gloden
(48.4833°N, 15.3167°E)
Time: 06:24:19
(UTC+00:00)

Cosmos 1500 - Pass Details

Date: 15 December 2019
Orbit: 499 x 521 km, 82.5° (Epoch: 19 January)

Event Time Altitude Azimuth Distance (km) Brightness Sun altitude
Rises 04:57:16 0° 197° (SSW) 2,628 6.8 -16.6°
Reaches altitude 10° 04:59:25 10° 200° (SSW) 1,743 5.8 -16.3°
Maximum altitude 05:03:12 61° 281° (W) 592 3.1 -15.7°
Drops below altitude 10° 05:07:00 10° 3° (N) 1,746 5.7 -15.1°
Sets 05:09:09 0° 7° (N) 2,634 6.7 -14.7°
